• In Belarus
  • List of Countries
  • For 7 days
  • Water Temperature
  • Satellite Maps
  • Weather Map
  • Weather Widgets
  • user-avatar
    Login

    Hourly Weather Tjumen'

    Today, 23 May, Wednesday

    Time Temperature Precipitation Wind Pressure Humidity
    00:00 +7°C° 0 mm 3 mps 757 mmHg 46%
    01:00 +7°C° 0 mm 3 mps 758 mmHg 49%
    02:00 +5°C° 0 mm 3 mps 758 mmHg 51%
    03:00 +5°C° 0 mm 3 mps 759 mmHg 53%
    04:00 +4°C° 0 mm 3 mps 759 mmHg 57%
    05:00 +7°C° 0 mm 3 mps 759 mmHg 52%
    06:00 +7°C° 0 mm 4 mps 760 mmHg 47%
    07:00 +8°C° 0 mm 4 mps 760 mmHg 43%
    08:00 +10°C° 0 mm 4 mps 760 mmHg 40%
    09:00 +12°C° 0 mm 5 mps 760 mmHg 37%
    10:00 +13°C° 0 mm 5 mps 761 mmHg 34%
    11:00 +14°C° 0 mm 4 mps 761 mmHg 32%
    12:00 +15°C° 0 mm 4 mps 760 mmHg 30%
    13:00 +17°C° 0 mm 4 mps 760 mmHg 28%
    14:00 +17°C° 0 mm 4 mps 760 mmHg 28%
    15:00 +18°C° 0 mm 3 mps 760 mmHg 27%
    16:00 +18°C° 0 mm 2 mps 759 mmHg 27%
    17:00 +17°C° 0 mm 2 mps 759 mmHg 31%
    18:00 +16°C° 0 mm 1 mps 758 mmHg 35%
    19:00 +15°C° 0 mm 1 mps 758 mmHg 39%
    20:00 +14°C° 0 mm 2 mps 757 mmHg 39%
    21:00 +14°C° 0 mm 2 mps 757 mmHg 39%
    22:00 +12°C° 0 mm 3 mps 756 mmHg 39%
    23:00 +13°C° 0 mm 4 mps 755 mmHg 41%

    Tomorrow, 24 May, Thursday

    Time Temperature Precipitation Wind Pressure Humidity
    00:00 +13°C° 0 mm 4 mps 754 mmHg 42%
    01:00 +13°C° 0 mm 5 mps 753 mmHg 43%
    02:00 +13°C° 0 mm 5 mps 753 mmHg 49%
    03:00 +13°C° 0 mm 5 mps 752 mmHg 54%
    04:00 +13°C° 0 mm 4 mps 751 mmHg 60%
    05:00 +15°C° 0 mm 4 mps 751 mmHg 60%
    06:00 +16°C° 0 mm 5 mps 750 mmHg 61%
    07:00 +19°C° 0 mm 5 mps 749 mmHg 62%
    08:00 +21°C° 0.1 mm 6 mps 749 mmHg 59%
    09:00 +22°C° 0.1 mm 6 mps 748 mmHg 55%
    10:00 +23°C° 0.1 mm 7 mps 748 mmHg 51%
    11:00 +24°C° 0.1 mm 7 mps 747 mmHg 48%
    12:00 +26°C° 0.1 mm 8 mps 747 mmHg 45%
    13:00 +26°C° 0.1 mm 8 mps 747 mmHg 41%
    14:00 +24°C° 0 mm 7 mps 747 mmHg 44%
    15:00 +23°C° 0 mm 6 mps 747 mmHg 46%
    16:00 +22°C° 0 mm 5 mps 747 mmHg 49%
    17:00 +21°C° 0 mm 5 mps 747 mmHg 54%
    18:00 +19°C° 0 mm 4 mps 748 mmHg 59%
    19:00 +18°C° 0 mm 4 mps 748 mmHg 65%
    20:00 +16°C° 0 mm 3 mps 748 mmHg 69%
    21:00 +13°C° 0 mm 3 mps 749 mmHg 73%
    22:00 +13°C° 0 mm 2 mps 749 mmHg 77%
    23:00 +12°C° 0 mm 2 mps 749 mmHg 76%

    Day after tomorrow, 25 May, Friday

    Time Temperature Precipitation Wind Pressure Humidity
    00:00 +12°C° 0 mm 2 mps 749 mmHg 74%
    01:00 +11°C° 0 mm 1 mps 749 mmHg 73%
    02:00 +11°C° 0 mm 1 mps 750 mmHg 73%
    03:00 +11°C° 0 mm 1 mps 750 mmHg 72%
    04:00 +11°C° 0 mm 1 mps 750 mmHg 71%
    05:00 +11°C° 0.1 mm 1 mps 750 mmHg 72%
    06:00 +10°C° 0.1 mm 2 mps 750 mmHg 73%
    07:00 +10°C° 0.1 mm 2 mps 750 mmHg 74%
    08:00 +10°C° 0.5 mm 2 mps 750 mmHg 75%
    09:00 +10°C° 0.5 mm 2 mps 750 mmHg 76%
    10:00 +10°C° 0.5 mm 2 mps 750 mmHg 78%
    11:00 +10°C° 0.3 mm 2 mps 750 mmHg 75%
    12:00 +10°C° 0.3 mm 2 mps 751 mmHg 73%
    13:00 +10°C° 0.3 mm 2 mps 751 mmHg 70%
    14:00 +10°C° 0.2 mm 2 mps 751 mmHg 69%
    15:00 +10°C° 0.2 mm 2 mps 751 mmHg 68%
    16:00 +10°C° 0.2 mm 2 mps 751 mmHg 67%
    17:00 +10°C° 0.2 mm 2 mps 751 mmHg 70%
    18:00 +10°C° 0.2 mm 1 mps 751 mmHg 74%
    19:00 +10°C° 0.2 mm 1 mps 751 mmHg 77%
    20:00 +9°C° 0.1 mm 1 mps 751 mmHg 79%
    21:00 +8°C° 0.1 mm 2 mps 752 mmHg 80%
    22:00 +7°C° 0.1 mm 2 mps 752 mmHg 82%
    23:00 +6°C° 0 mm 2 mps 752 mmHg 80%

    26 May, Saturday

    Time Temperature Precipitation Wind Pressure Humidity
    00:00 +5°C° 0 mm 3 mps 752 mmHg 78%
    01:00 +4°C° 0 mm 3 mps 752 mmHg 76%
    02:00 +4°C° 0 mm 3 mps 752 mmHg 77%
    03:00 +3°C° 0 mm 4 mps 752 mmHg 79%
    04:00 +3°C° 0 mm 4 mps 753 mmHg 81%
    05:00 +4°C° 0 mm 4 mps 753 mmHg 76%
    06:00 +5°C° 0 mm 5 mps 753 mmHg 71%
    07:00 +6°C° 0 mm 5 mps 754 mmHg 66%
    08:00 +7°C° 0 mm 6 mps 754 mmHg 59%
    09:00 +8°C° 0 mm 6 mps 754 mmHg 52%
    10:00 +10°C° 0 mm 6 mps 754 mmHg 45%
    11:00 +10°C° 0 mm 6 mps 755 mmHg 40%
    12:00 +11°C° 0 mm 6 mps 755 mmHg 35%
    13:00 +11°C° 0 mm 6 mps 755 mmHg 31%
    14:00 +12°C° 0 mm 5 mps 755 mmHg 30%
    15:00 +12°C° 0 mm 5 mps 755 mmHg 29%
    16:00 +12°C° 0 mm 5 mps 756 mmHg 29%
    17:00 +12°C° 0 mm 4 mps 756 mmHg 32%
    18:00 +11°C° 0 mm 3 mps 756 mmHg 36%
    19:00 +10°C° 0 mm 2 mps 757 mmHg 40%
    20:00 +8°C° 0 mm 2 mps 757 mmHg 43%
    21:00 +8°C° 0 mm 1 mps 757 mmHg 46%
    22:00 +6°C° 0 mm 1 mps 757 mmHg 49%
    23:00 +6°C° 0 mm 1 mps 757 mmHg 49%

    27 May, Sunday

    Time Temperature Precipitation Wind Pressure Humidity
    00:00 +5°C° 0 mm 1 mps 757 mmHg 50%
    01:00 +4°C° 0 mm 2 mps 757 mmHg 51%
    02:00 +4°C° 0 mm 2 mps 757 mmHg 51%
    03:00 +4°C° 0 mm 2 mps 757 mmHg 51%
    04:00 +4°C° 0 mm 2 mps 757 mmHg 51%
    05:00 +6°C° 0 mm 2 mps 757 mmHg 47%
    06:00 +8°C° 0 mm 3 mps 756 mmHg 43%
    07:00 +11°C° 0 mm 3 mps 756 mmHg 39%
    08:00 +12°C° 0 mm 3 mps 755 mmHg 38%
    09:00 +14°C° 0 mm 3 mps 755 mmHg 36%
    10:00 +17°C° 0 mm 3 mps 754 mmHg 34%
    11:00 +18°C° 0 mm 4 mps 753 mmHg 33%
    12:00 +19°C° 0 mm 4 mps 753 mmHg 33%
    13:00 +20°C° 0 mm 4 mps 752 mmHg 32%
    14:00 +20°C° 0 mm 4 mps 751 mmHg 32%
    15:00 +20°C° 0 mm 4 mps 750 mmHg 33%
    16:00 +21°C° 0 mm 4 mps 750 mmHg 33%
    17:00 +20°C° 0 mm 4 mps 749 mmHg 38%
    18:00 +18°C° 0 mm 4 mps 748 mmHg 42%
    19:00 +17°C° 0 mm 4 mps 747 mmHg 47%
    20:00 +15°C° 0 mm 4 mps 746 mmHg 48%
    21:00 +14°C° 0 mm 5 mps 745 mmHg 50%
    22:00 +13°C° 0 mm 5 mps 744 mmHg 52%
    23:00 +13°C° 0 mm 5 mps 744 mmHg 55%

    28 May, Monday

    Time Temperature Precipitation Wind Pressure Humidity
    00:00 +13°C° 0 mm 5 mps 743 mmHg 59%
    01:00 +12°C° 0 mm 5 mps 742 mmHg 62%
    02:00 +10°C° 0.2 mm 5 mps 742 mmHg 69%
    03:00 +10°C° 0.2 mm 5 mps 742 mmHg 75%
    04:00 +9°C° 0.2 mm 5 mps 742 mmHg 81%
    05:00 +8°C° 0.1 mm 5 mps 742 mmHg 79%
    06:00 +8°C° 0.1 mm 5 mps 742 mmHg 77%
    07:00 +7°C° 0.1 mm 5 mps 742 mmHg 74%
    08:00 +8°C° 0 mm 5 mps 743 mmHg 70%
    09:00 +8°C° 0 mm 5 mps 743 mmHg 66%
    10:00 +9°C° 0 mm 5 mps 743 mmHg 61%
    11:00 +10°C° 0.1 mm 5 mps 743 mmHg 57%
    12:00 +12°C° 0.1 mm 5 mps 743 mmHg 53%
    13:00 +13°C° 0.1 mm 5 mps 743 mmHg 48%
    14:00 +12°C° 0.3 mm 5 mps 743 mmHg 51%
    15:00 +12°C° 0.3 mm 5 mps 743 mmHg 54%
    16:00 +12°C° 0.3 mm 5 mps 743 mmHg 57%
    17:00 +10°C° 0.4 mm 5 mps 743 mmHg 63%
    18:00 +9°C° 0.4 mm 5 mps 743 mmHg 69%
    19:00 +8°C° 0.4 mm 4 mps 744 mmHg 74%
    20:00 +7°C° 0.1 mm 4 mps 744 mmHg 76%
    21:00 +6°C° 0.1 mm 4 mps 744 mmHg 77%
    22:00 +5°C° 0.1 mm 4 mps 744 mmHg 79%
    23:00 +4°C° 0 mm 4 mps 744 mmHg 80%
    Show more